| time (UTC) | temp F | wind direction | speed MPH | gust MPH | rain 1hr in | rain 24hr in | rain mn in | humidity % | barometer mb |
| 20260906051601 | 61 | 285 | 0.0 | 0.0 | 0.00 | 0.00 | 0.00 | 66 | 1012.2 |
| 20260906050044 | 62 | 268 | 0.0 | 0.0 | 0.00 | 0.00 | 0.00 | 65 | 1012.1 |
| 20260906044548 | 62 | 268 | 0.0 | 0.0 | 0.00 | 0.00 | 0.00 | 64 | 1012.0 |
| 20260906043040 | 63 | 268 | 0.0 | 0.0 | 0.00 | 0.00 | 0.00 | 63 | 1011.9 |
| 20260906041538 | 64 | 268 | 0.0 | 0.0 | 0.00 | 0.00 | 0.00 | 62 | 1011.8 |
| 20260906040110 | 65 | 355 | 0.0 | 0.0 | 0.00 | 0.00 | 0.00 | 62 | 1011.5 |
| 20260906034537 | 66 | 355 | 0.0 | 0.0 | 0.00 | 0.00 | 0.00 | 59 | 1011.2 |
| 20260906033051 | 67 | 304 | 0.0 | 0.0 | 0.00 | 0.00 | 0.00 | 58 | 1011.1 |
| 20260906031536 | 68 | 209 | 0.0 | 0.0 | 0.00 | 0.00 | 0.00 | 58 | 1010.7 |
| 20260906030035 | 68 | 275 | 0.0 | 0.0 | 0.00 | 0.00 | 0.00 | 57 | 1010.4 |
| 20260906024534 | 69 | 213 | 0.0 | 0.0 | 0.00 | 0.00 | 0.00 | 57 | 1010.5 |
| 20260906023034 | 70 | 291 | 0.0 | 0.0 | 0.00 | 0.00 | 0.00 | 55 | 1010.5 |
| 20260906021534 | 71 | 205 | 0.0 | 0.0 | 0.00 | 0.00 | 0.00 | 53 | 1010.5 |
| 20260906020035 | 72 | 265 | 0.0 | 3.0 | 0.00 | 0.00 | 0.00 | 52 | 1010.3 |
| 20260906014533 | 73 | 223 | 0.0 | 2.0 | 0.00 | 0.00 | 0.00 | 49 | 1010.4 |
| 20260906013034 | 75 | 207 | 0.0 | 1.0 | 0.00 | 0.00 | 0.00 | 47 | 1010.4 |
| 20260906011532 | 75 | 225 | 0.0 | 2.0 | 0.00 | 0.00 | 0.00 | 45 | 1010.4 |
| 20260906010031 | 76 | 248 | 0.0 | 5.0 | 0.00 | 0.00 | 0.00 | 44 | 1010.5 |
| 20260906004530 | 77 | 226 | 0.0 | 1.0 | 0.00 | 0.00 | 0.00 | 45 | 1010.5 |
| 20260906003030 | 77 | 238 | 0.0 | 4.0 | 0.00 | 0.00 | 0.00 | 47 | 1010.4 |
| 20260906001532 | 77 | 228 | 0.0 | 6.0 | 0.00 | 0.00 | 0.00 | 47 | 1010.5 |
| 20260906000029 | 77 | 205 | 0.0 | 4.0 | 0.00 | 0.00 | 0.00 | 47 | 1010.4 |
| 20260905234528 | 78 | 244 | 1.0 | 8.0 | 0.00 | 0.00 | 0.00 | 46 | 1010.4 |
| 20260905233027 | 78 | 292 | 0.0 | 4.0 | 0.00 | 0.00 | 0.00 | 46 | 1010.4 |
| 20260905231526 | 79 | 207 | 2.0 | 6.0 | 0.00 | 0.00 | 0.00 | 44 | 1010.5 |
| 20260905230025 | 79 | 198 | 1.0 | 8.0 | 0.00 | 0.00 | 0.00 | 44 | 1010.6 |
| 20260905224555 | 79 | 232 | 0.0 | 7.0 | 0.00 | 0.00 | 0.00 | 44 | 1010.8 |
| 20260905223022 | 80 | 208 | 1.0 | 6.0 | 0.00 | 0.00 | 0.00 | 43 | 1010.9 |
| 20260905221520 | 80 | 215 | 0.0 | 7.0 | 0.00 | 0.00 | 0.00 | 44 | 1010.9 |
| 20260905220020 | 80 | 191 | 0.0 | 6.0 | 0.00 | 0.00 | 0.00 | 44 | 1011.0 |
| 20260905214519 | 80 | 273 | 2.0 | 6.0 | 0.00 | 0.00 | 0.00 | 43 | 1011.1 |
| 20260905213017 | 80 | 232 | 0.0 | 7.0 | 0.00 | 0.00 | 0.00 | 43 | 1011.3 |
| 20260905211536 | 81 | 224 | 1.0 | 7.0 | 0.00 | 0.00 | 0.00 | 42 | 1011.2 |
| 20260905210023 | 81 | 211 | 2.0 | 8.0 | 0.00 | 0.00 | 0.00 | 43 | 1011.4 |
| 20260905204516 | 81 | 193 | 1.0 | 7.0 | 0.00 | 0.00 | 0.00 | 44 | 1011.4 |
| 20260905203014 | 81 | 229 | 2.0 | 7.0 | 0.00 | 0.00 | 0.00 | 43 | 1011.5 |
| 20260905201513 | 81 | 244 | 3.0 | 9.0 | 0.00 | 0.00 | 0.00 | 45 | 1011.4 |
| 20260905200022 | 81 | 250 | 0.0 | 6.0 | 0.00 | 0.00 | 0.00 | 46 | 1011.6 |
| 20260905194511 | 80 | 84 | 1.0 | 8.0 | 0.00 | 0.00 | 0.00 | 46 | 1011.7 |
| 20260905193010 | 81 | 244 | 2.0 | 10.0 | 0.00 | 0.00 | 0.00 | 46 | 1011.8 |
| 20260905191506 | 80 | 183 | 1.0 | 7.0 | 0.00 | 0.00 | 0.00 | 45 | 1011.8 |
| 20260905190003 | 80 | 325 | 1.0 | 7.0 | 0.00 | 0.00 | 0.00 | 45 | 1011.9 |
| 20260905184604 | 80 | 204 | 0.0 | 5.0 | 0.00 | 0.00 | 0.00 | 45 | 1011.9 |
| 20260905183056 | 79 | 135 | 0.0 | 1.0 | 0.00 | 0.00 | 0.00 | 43 | 1012.0 |
| 20260905181552 | 78 | 84 | 0.0 | 2.0 | 0.00 | 0.00 | 0.00 | 43 | 1012.1 |
| 20260905180058 | 77 | 222 | 0.0 | 3.0 | 0.00 | 0.00 | 0.00 | 42 | 1012.1 |
| 20260905174542 | 75 | 125 | 0.0 | 3.0 | 0.00 | 0.00 | 0.00 | 44 | 1012.2 |
| 20260905173100 | 73 | 355 | 0.0 | 4.0 | 0.00 | 0.00 | 0.00 | 46 | 1012.3 |
| 20260905171535 | 71 | 114 | 0.0 | 0.0 | 0.00 | 0.00 | 0.00 | 49 | 1012.3 |
| 20260905170030 | 70 | 65 | 0.0 | 3.0 | 0.00 | 0.00 | 0.00 | 50 | 1012.2 |
| 20260905164530 | 69 | 180 | 0.0 | 3.0 | 0.00 | 0.00 | 0.00 | 52 | 1012.3 |
| 20260905163024 | 67 | 63 | 0.0 | 0.0 | 0.00 | 0.00 | 0.00 | 56 | 1012.3 |
| 20260905161517 | 67 | 83 | 0.0 | 3.0 | 0.00 | 0.00 | 0.00 | 56 | 1012.3 |
| 20260905160015 | 65 | 93 | 0.0 | 3.0 | 0.00 | 0.00 | 0.00 | 60 | 1012.4 |
| 20260905154510 | 63 | 82 | 0.0 | 1.0 | 0.00 | 0.00 | 0.00 | 64 | 1012.3 |
| 20260905153004 | 59 | 122 | 0.0 | 0.0 | 0.00 | 0.00 | 0.00 | 74 | 1012.3 |
| 20260905151600 | 57 | 204 | 0.0 | 0.0 | 0.00 | 0.00 | 0.00 | 79 | 1012.2 |
| 20260905144551 | 53 | 206 | 0.0 | 0.0 | 0.00 | 0.00 | 0.00 | 85 | 1012.1 |
| 20260905143047 | 52 | 186 | 0.0 | 0.0 | 0.00 | 0.00 | 0.00 | 86 | 1011.9 |
| 20260905141542 | 51 | 165 | 0.0 | 0.0 | 0.00 | 0.00 | 0.00 | 86 | 1011.7 |
| 20260905140039 | 51 | 165 | 0.0 | 0.0 | 0.00 | 0.00 | 0.00 | 85 | 1011.7 |
| 20260905134536 | 51 | 165 | 0.0 | 0.0 | 0.00 | 0.00 | 0.00 | 85 | 1011.6 |
| 20260905133038 | 51 | 221 | 0.0 | 0.0 | 0.00 | 0.00 | 0.00 | 85 | 1011.6 |
| 20260905131534 | 52 | 221 | 0.0 | 0.0 | 0.00 | 0.00 | 0.00 | 85 | 1011.4 |
| 20260905130032 | 52 | 221 | 0.0 | 0.0 | 0.00 | 0.00 | 0.00 | 85 | 1011.4 |
| 20260905124530 | 52 | 221 | 0.0 | 0.0 | 0.00 | 0.00 | 0.00 | 85 | 1011.4 |
| 20260905123028 | 53 | 221 | 0.0 | 0.0 | 0.00 | 0.00 | 0.00 | 85 | 1011.4 |
| 20260905121528 | 53 | 221 | 0.0 | 0.0 | 0.00 | 0.00 | 0.00 | 85 | 1011.4 |
| 20260905120026 | 54 | 221 | 0.0 | 0.0 | 0.00 | 0.00 | 0.00 | 85 | 1011.4 |
| 20260905114525 | 54 | 221 | 0.0 | 0.0 | 0.00 | 0.00 | 0.00 | 85 | 1011.4 |
| 20260905113023 | 54 | 221 | 0.0 | 0.0 | 0.00 | 0.00 | 0.00 | 85 | 1011.3 |
| 20260905111522 | 55 | 221 | 0.0 | 0.0 | 0.00 | 0.00 | 0.00 | 84 | 1011.4 |
| 20260905110020 | 55 | 221 | 0.0 | 0.0 | 0.00 | 0.00 | 0.00 | 85 | 1011.4 |
| 20260905104517 | 56 | 221 | 0.0 | 0.0 | 0.00 | 0.00 | 0.00 | 84 | 1011.3 |
| 20260905103018 | 56 | 221 | 0.0 | 0.0 | 0.00 | 0.00 | 0.00 | 84 | 1011.3 |
| 20260905101515 | 56 | 221 | 0.0 | 0.0 | 0.00 | 0.00 | 0.00 | 84 | 1011.4 |
| 20260905100028 | 57 | 221 | 0.0 | 0.0 | 0.00 | 0.00 | 0.00 | 84 | 1011.5 |
| 20260905094515 | 57 | 221 | 0.0 | 0.0 | 0.00 | 0.00 | 0.00 | 83 | 1011.5 |
| 20260905093010 | 57 | 221 | 0.0 | 0.0 | 0.00 | 0.00 | 0.00 | 84 | 1011.6 |
| 20260905091511 | 57 | 221 | 0.0 | 0.0 | 0.00 | 0.00 | 0.00 | 83 | 1011.6 |
| 20260905090010 | 58 | 221 | 0.0 | 0.0 | 0.00 | 0.00 | 0.00 | 83 | 1011.6 |
| 20260905084506 | 58 | 221 | 0.0 | 0.0 | 0.00 | 0.00 | 0.00 | 83 | 1011.6 |
| 20260905083006 | 58 | 221 | 0.0 | 0.0 | 0.00 | 0.00 | 0.00 | 83 | 1011.7 |
| 20260905081503 | 58 | 221 | 0.0 | 0.0 | 0.00 | 0.00 | 0.00 | 82 | 1011.8 |
| 20260905080002 | 59 | 221 | 0.0 | 0.0 | 0.00 | 0.00 | 0.00 | 82 | 1011.9 |
| 20260905074600 | 59 | 221 | 0.0 | 0.0 | 0.00 | 0.00 | 0.00 | 82 | 1012.0 |
| 20260905073100 | 59 | 221 | 0.0 | 0.0 | 0.00 | 0.00 | 0.00 | 82 | 1012.0 |
| 20260905071601 | 60 | 211 | 0.0 | 0.0 | 0.00 | 0.00 | 0.00 | 82 | 1012.0 |
| 20260905070058 | 60 | 260 | 0.0 | 0.0 | 0.00 | 0.00 | 0.00 | 83 | 1011.8 |
| 20260905064613 | 60 | 260 | 0.0 | 0.0 | 0.00 | 0.00 | 0.00 | 83 | 1011.5 |
| 20260905063055 | 60 | 290 | 0.0 | 0.0 | 0.00 | 0.00 | 0.00 | 83 | 1011.7 |
| 20260905061603 | 60 | 290 | 0.0 | 0.0 | 0.00 | 0.00 | 0.00 | 82 | 1011.7 |
| 20260905060053 | 60 | 250 | 0.0 | 0.0 | 0.00 | 0.00 | 0.00 | 82 | 1011.8 |
| 20260905054651 | 61 | 250 | 0.0 | 0.0 | 0.00 | 0.00 | 0.00 | 82 | 1011.7 |
| 20260905053052 | 61 | 218 | 0.0 | 2.0 | 0.00 | 0.00 | 0.00 | 82 | 1011.6 |